#timestamp,LO_Frequency,Hit,StdDev 
1569481215.4,286047000.9,N
1569481235.3,286047000.7,N
1569481255.1,286047000.0,N
1569481275.8,286047002.3,N
1569481295.7,286046999.9,N
1569481315.5,286047000.5,N
1569481335.4,286047001.0,N
1569481355.2,286047000.8,N
1569481375.0,286046998.2,N
1569481375.9,286046998.2,N
1569481395.8,286046999.1,N
1569481415.6,286046998.9,N
1569481435.4,286046998.9,N
1569481455.3,286046998.8,N
1569481475.1,286046998.7,N
1569481495.9,286046998.2,N
1569481515.7,286046998.4,N
1569481535.5,286046996.5,N
1569481555.4,286046996.7,N
1569481575.2,286046998.0,N
1569481595.1,286046996.7,N
1569481596.0,286046996.7,N
1569481615.8,286046997.6,N
1569481635.6,286046997.3,N
1569481655.5,286046997.8,N
1569481675.3,286046997.7,N
1569481695.1,286046996.5,N
1569481715.9,286046997.3,N
1569481735.7,286046999.5,N
1569481755.6,286046999.1,N
1569481775.4,286046998.9,N
1569481795.2,286046999.1,N
1569481815.1,286046998.8,N
1569481816.0,286046998.8,N
1569481835.8,286046998.3,N
1569481855.7,286047000.0,N
1569481875.5,286047000.5,N
1569481895.3,286046998.7,N
1569481915.2,286046998.7,N
1569481935.0,286047001.1,N
1569481935.9,286047001.1,N
1569481955.7,286047000.9,N
1569481975.6,286046998.4,N
1569481995.4,286046998.7,N
1569482015.3,286047000.7,N
1569482035.1,286047000.7,N
1569482055.9,286047000.2,N
1569482075.7,286047000.5,N
1569482095.5,286047001.0,N
1569482115.4,286047000.8,N
1569482135.2,286047001.1,N
1569482155.0,286046998.3,N
1569482155.9,286046998.3,N
1569482175.8,286047000.0,N
1569482195.6,286047002.2,N
1569482215.5,286046999.8,N
1569482235.3,286047000.9,N
1569482255.1,286046999.9,N
1569482275.9,286047000.4,N
1569482295.7,286047000.4,N
1569482315.6,286046999.8,N
1569482335.4,286047001.6,N
1569482355.2,286047003.5,Y
1569482375.1,286047005.3,P
1569482376.0,286047005.3,N
1569482395.8,286047005.7,N
1569482415.6,286047002.9,N
1569482435.5,286047005.4,N
1569482455.3,286047005.1,N
1569482475.2,286047003.2,N
1569482495.9,286047005.5,N
1569482515.7,286047004.7,N
1569482535.6,286047007.1,Y
1569482555.4,286046999.8,P
1569482575.3,286047001.5,N
1569482595.1,286047001.5,N
1569482615.8,286047001.9,N
1569482635.7,286047001.0,N
1569482655.5,286046998.9,N
1569482675.4,286046998.3,N
1569482695.2,286046998.1,N
1569482715.0,286047001.1,N
1569482715.9,286047001.1,N
1569482735.8,286046998.6,N
1569482755.6,286046999.2,N
1569482775.4,286046999.3,N
1569482795.3,286046999.2,N
1569482815.1,286046996.8,N
1569482835.9,286046997.8,N
1569482855.7,286046997.1,N
1569482875.5,286046997.8,N
1569482895.4,286046997.3,N
1569482915.2,286046997.9,N
1569482935.0,286046995.2,N
1569482935.9,286046995.2,N
1569482955.8,286046994.0,N
1569482975.6,286046993.5,N
1569482995.5,286046996.1,N
1569483015.3,286046996.3,N
1569483035.1,286046993.8,N
1569483055.9,286046994.8,N
1569483075.7,286046992.8,N
1569483095.5,286046991.9,N
1569483115.4,286046991.9,N
1569483135.2,286046994.8,N
1569483155.1,286046994.3,N
1569483156.0,286046994.3,N
1569483175.8,286046991.7,Y
1569483195.6,286046997.4,P
1569483215.5,286046997.4,P
1569483235.3,286046997.6,P
1569483255.2,286046997.7,Y
1569483275.9,286046996.7,P
1569483295.7,286046997.7,P
1569483315.6,286046997.7,P
1569483335.4,286046996.8,Y
1569483355.3,286046998.6,P
1569483375.1,286046998.5,N
1569483376.0,286046998.5,N
1569483395.8,286046999.2,N
1569483415.7,286046999.4,N
1569483435.5,286046998.3,N
1569483455.3,286046999.0,N
1569483475.2,286046998.3,N
1569483495.0,286047000.5,N
1569483495.9,286047000.5,N
1569483515.8,286047000.6,N
1569483535.6,286047002.3,N
1569483555.4,286046999.9,N
1569483575.3,286047001.0,N
1569483595.1,286046998.9,N
1569483615.9,286046999.3,N
1569483635.7,286046999.0,N
1569483655.5,286046999.3,N
1569483675.4,286047001.2,N
1569483695.2,286046999.9,N
1569483715.0,286046999.9,N
1569483715.9,286046999.9,N
1569483735.8,286047002.3,N
1569483755.6,286047001.4,N
1569483775.5,286046999.8,N
1569483795.3,286047000.6,N
1569483815.1,286047000.2,N
1569483835.9,286047000.0,N
1569483855.7,286046999.9,N
1569483875.6,286047000.5,N
1569483895.4,286047000.1,N
1569483915.2,286047002.1,N
1569483935.1,286047001.9,N
1569483936.0,286047001.9,N
1569483955.8,286047002.5,N
1569483975.6,286047002.4,N
1569483995.5,286047000.9,N
1569484015.3,286047000.7,N
1569484035.2,286047001.6,N
1569484055.9,286047002.3,N
1569484075.7,286047000.6,N
1569484095.6,286046998.6,N
1569484115.4,286046998.6,N
1569484135.3,286047001.0,N
1569484155.1,286047000.9,N
1569484156.0,286047000.9,N
1569484175.8,286046999.7,N
1569484195.7,286047001.5,N
1569484215.5,286047002.7,N
1569484235.3,286047000.2,N
1569484255.2,286047000.4,N
1569484275.0,286047000.5,N
1569484275.9,286047000.5,N
1569484295.8,286046998.2,N
1569484315.6,286047000.9,N
1569484335.5,286047000.1,N
1569484355.3,286047002.0,N
1569484375.1,286047002.0,N
1569484395.9,286047001.3,N
1569484415.7,286047002.4,N
1569484435.6,286047000.2,N
1569484455.4,286047002.4,N
1569484475.2,286047002.7,N
1569484495.1,286047002.3,N
1569484496.0,286047002.3,N
1569484515.8,286047002.2,N
1569484535.7,286047004.1,Y
1569484555.5,286047001.5,P
1569484575.3,286046999.8,N
1569484595.2,286046999.8,N
1569484615.9,286046999.8,N
1569484635.7,286047002.7,Y
1569484655.6,286047000.0,P
1569484675.4,286047000.1,N
1569484695.3,286047000.1,N
1569484715.1,286047001.9,Y
1569484716.0,286047001.9,P
1569484735.8,286047002.0,N
1569484755.7,286047002.8,P
1569484775.5,286046999.9,N
1569484795.4,286047000.5,N
